South St. Paul, MN

11:46 AM CDT on March 29, 2017 (GMT -0500)
South Saint Paul Municipal-Fleming

Weather History for KSGS - February, 2014

Change the Weather History Date:

Saturday, February 22, 2014

  Actual Average (KSTP) Record (KSTP)
Temperature  
Mean Temperature 12 °F -  
Max Temperature 17 °F 30 °F 57 °F (2017)
Min Temperature 7 °F 16 °F -8 °F (2015)
Degree Days  
Heating Degree Days 53    
Moisture  
Dew Point 4 °F    
Average Humidity 66    
Maximum Humidity 74    
Minimum Humidity 60    
Precipitation  
Precipitation 0.00 in - - ()
Sea Level Pressure  
Sea Level Pressure 29.96 in    
Wind  
Wind Speed 8 mph (West)    
Max Wind Speed 15 mph    
Max Gust Speed 22 mph    
Averages and records for this station are not official NWS values.
T = Trace of Precipitation, MM = Missing Value Source: NWS Daily Summary

Daily Weather History Graph

Daily Weather History Graph

Search for Another Location

Airport or City:

Trip Planner

Search our weather history database for the weather conditions in past years. The results will help you decide how hot, cold, wet, or windy it might be!

Date:

Astronomy

Feb. 22, 2014 Rise Set
Actual Time 7:01 AM CST 5:50 PM CST
Civil Twilight 6:31 AM CST 6:19 PM CST
Nautical Twilight 5:57 AM CST 6:53 PM CST
Astronomical Twilight 5:24 AM CST 7:27 PM CST
Moon 1:03 AM CST (2/22) 10:54 AM CST (2/22)
Length of Visible Light 11h 47m
Length of Day
10h 48m
Waning Gibbous, 50% of the Moon is Illuminated
Feb 22
Waning Gibbous
Mar 1
New
Mar 8
First Quarter
Mar 16
Full
Mar 23
Last Quarter

Hourly Weather History & Observations

Time (CST) Temp. Windchill Dew Point Humidity Pressure Visibility Wind Dir Wind Speed Gust Speed Precip Events Conditions
12:12 AM 15.6 °F 4.9 °F 7.5 °F 70% 29.77 in - West 8.1 mph 18.4 mph N/A   Clear
12:32 AM 14.9 °F 2.3 °F 7.2 °F 71% 29.78 in - West 10.4 mph 17.3 mph N/A   Clear
12:52 AM 14.9 °F 3.1 °F 6.8 °F 70% 29.78 in - West 9.2 mph 18.4 mph N/A   Clear
1:12 AM 14.4 °F 2.4 °F 6.6 °F 71% 29.79 in - West 9.2 mph - N/A   Clear
1:32 AM 14.0 °F 0.5 °F 6.4 °F 72% 29.80 in - West 11.5 mph 16.1 mph N/A   Clear
1:52 AM 13.8 °F 1.0 °F 5.9 °F 71% 29.80 in - West 10.4 mph 17.3 mph N/A   Clear
2:12 AM 13.6 °F 0.7 °F 5.9 °F 71% 29.81 in - West 10.4 mph - N/A   Clear
2:32 AM 13.1 °F 1.8 °F 5.5 °F 72% 29.82 in - West 8.1 mph 17.3 mph N/A   Clear
2:52 AM 12.9 °F 1.6 °F 5.0 °F 71% 29.82 in - West 8.1 mph - N/A   Clear
3:12 AM 12.6 °F 2.2 °F 4.5 °F 70% 29.83 in - West 6.9 mph - N/A   Clear
3:32 AM 12.0 °F -1.3 °F 3.9 °F 70% 29.83 in - West 10.4 mph 17.3 mph N/A   Clear
3:52 AM 11.5 °F 2.1 °F 3.7 °F 71% 29.84 in - West 5.8 mph - N/A   Clear
4:12 AM 11.3 °F -1.3 °F 3.4 °F 70% 29.85 in - West 9.2 mph - N/A   Clear
4:32 AM 10.9 °F 1.4 °F 3.2 °F 71% 29.87 in - West 5.8 mph - N/A   Clear
4:52 AM 10.9 °F 1.4 °F 3.0 °F 70% 29.87 in - West 5.8 mph - N/A   Clear
5:12 AM 10.4 °F 2.2 °F 2.7 °F 71% 29.87 in - West 4.6 mph - N/A   Clear
5:32 AM 10.2 °F 3.8 °F 2.5 °F 71% 29.88 in - West 3.5 mph - N/A   Clear
5:52 AM 9.7 °F - 2.3 °F 72% 29.90 in - Calm Calm - N/A   Clear
6:12 AM 9.3 °F - 2.1 °F 73% 29.90 in - Calm Calm - N/A   Clear
6:32 AM 8.6 °F 2.0 °F 1.8 °F 74% 29.90 in - West 3.5 mph - N/A   Clear
6:52 AM 8.4 °F 1.8 °F 1.4 °F 73% 29.92 in - West 3.5 mph - N/A   Clear
7:12 AM 8.2 °F -0.3 °F 1.2 °F 73% 29.94 in - West 4.6 mph - N/A   Clear
7:32 AM 7.7 °F -0.9 °F 0.9 °F 74% 29.95 in - West 4.6 mph - N/A   Clear
7:52 AM 8.2 °F 1.6 °F 1.0 °F 72% 29.95 in - West 3.5 mph - N/A   Clear
8:12 AM 8.6 °F 2.0 °F 1.0 °F 71% 29.95 in - West 3.5 mph - N/A   Clear
8:32 AM 9.1 °F - 1.2 °F 70% 29.95 in - Calm Calm - N/A   Clear
8:52 AM 10.2 °F -1.7 °F 1.4 °F 68% 29.96 in - West 8.1 mph - N/A   Clear
9:12 AM 10.9 °F -0.8 °F 1.8 °F 67% 29.95 in - WNW 8.1 mph - N/A   Clear
9:32 AM 11.3 °F -1.3 °F 1.9 °F 66% 29.97 in - WNW 9.2 mph 16.1 mph N/A   Clear
9:52 AM 12.2 °F 2.9 °F 2.3 °F 65% 29.97 in - WNW 5.8 mph - N/A   Clear
10:12 AM 12.7 °F -0.4 °F 2.8 °F 65% 29.98 in - West 10.4 mph - N/A   Clear
10:32 AM 13.6 °F 0.7 °F 3.6 °F 64% 29.98 in - West 10.4 mph - N/A   Clear
10:52 AM 14.2 °F 5.3 °F 3.6 °F 63% 29.98 in - West 5.8 mph - N/A   Clear
11:12 AM 14.9 °F 5.0 °F 3.9 °F 62% 29.98 in - West 6.9 mph - N/A   Clear
11:32 AM 14.9 °F 4.0 °F 3.6 °F 61% 29.98 in - West 8.1 mph 16.1 mph N/A   Clear
11:52 AM 15.8 °F 4.2 °F 4.5 °F 61% 29.98 in - West 9.2 mph - N/A   Clear
12:12 PM 16.2 °F 5.5 °F 4.8 °F 61% 29.98 in - WSW 8.1 mph 17.3 mph N/A   Clear
12:32 PM 16.3 °F 2.7 °F 4.8 °F 61% 29.98 in - West 12.7 mph 20.7 mph N/A   Clear
12:52 PM 16.7 °F 6.2 °F 4.8 °F 60% 29.97 in - WNW 8.1 mph 11.5 mph N/A   Clear
1:12 PM 16.7 °F 3.8 °F 4.8 °F 60% 29.98 in - West 11.5 mph - N/A   Clear
1:32 PM 16.7 °F 4.5 °F 5.2 °F 61% 29.97 in - West 10.4 mph 20.7 mph N/A   Clear
1:52 PM 17.2 °F 6.0 °F 5.9 °F 61% 29.98 in - West 9.2 mph 17.3 mph N/A   Clear
2:12 PM 17.2 °F 4.5 °F 6.1 °F 62% 29.98 in - West 11.5 mph 18.4 mph N/A   Clear
2:32 PM 17.4 °F 3.5 °F 5.7 °F 60% 29.98 in - West 13.8 mph 18.4 mph N/A   Clear
2:52 PM 17.1 °F 7.6 °F 5.4 °F 60% 29.99 in - West 6.9 mph 20.7 mph N/A   Clear
3:12 PM 17.4 °F 4.1 °F 5.7 °F 60% 29.99 in - West 12.7 mph 21.9 mph N/A   Clear
3:32 PM 17.4 °F 2.9 °F 5.9 °F 61% 29.99 in - WSW 15.0 mph 20.7 mph N/A   Clear
3:52 PM 17.4 °F 4.7 °F 6.1 °F 61% 29.99 in - WSW 11.5 mph 18.4 mph N/A   Clear
4:12 PM 17.4 °F 3.5 °F 5.7 °F 60% 30.00 in - West 13.8 mph 18.4 mph N/A   Clear
4:32 PM 17.4 °F 4.1 °F 5.9 °F 61% 30.01 in - West 12.7 mph - N/A   Clear
4:52 PM 17.1 °F 7.6 °F 6.1 °F 62% 30.01 in - West 6.9 mph - N/A   Clear
5:12 PM 16.7 °F 6.2 °F 5.9 °F 63% 30.02 in - West 8.1 mph 17.3 mph N/A   Clear
5:32 PM 16.7 °F 6.2 °F 5.9 °F 63% 30.02 in - West 8.1 mph - N/A   Clear
5:52 PM 16.3 °F 7.8 °F 5.9 °F 64% 30.02 in - West 5.8 mph - N/A   Clear
6:12 PM 15.8 °F 4.2 °F 5.9 °F 65% 30.03 in - West 9.2 mph - N/A   Clear
6:32 PM 15.6 °F 5.9 °F 5.7 °F 65% 30.04 in - West 6.9 mph - N/A   Clear
6:52 PM 15.3 °F 4.4 °F 5.5 °F 65% 30.04 in - West 8.1 mph - N/A   Clear
7:12 PM 14.9 °F 3.1 °F 5.5 °F 66% 30.05 in - West 9.2 mph - N/A   Clear
7:32 PM 14.9 °F 3.1 °F 5.0 °F 65% 30.06 in - WNW 9.2 mph 17.3 mph N/A   Clear
7:52 PM 14.9 °F 4.0 °F 4.5 °F 63% 30.07 in - West 8.1 mph 17.3 mph N/A   Clear
8:12 PM 14.2 °F 1.4 °F 4.1 °F 64% 30.07 in - WNW 10.4 mph - N/A   Clear
8:32 PM 14.0 °F 2.9 °F 4.1 °F 65% 30.08 in - WNW 8.1 mph 16.1 mph N/A   Clear
8:52 PM 13.6 °F 1.6 °F 3.9 °F 65% 30.08 in - WNW 9.2 mph - N/A   Clear
9:12 PM 13.6 °F 2.5 °F 4.1 °F 66% 30.09 in - WNW 8.1 mph - N/A   Clear
9:32 PM 13.6 °F 2.5 °F 4.1 °F 66% 30.10 in - WNW 8.1 mph - N/A   Clear
9:52 PM 13.5 °F 2.2 °F 4.1 °F 66% 30.10 in - West 8.1 mph - N/A   Clear
10:12 PM 13.3 °F 4.2 °F 3.9 °F 66% 30.10 in - WNW 5.8 mph - N/A   Clear
10:32 PM 13.1 °F 2.8 °F 3.9 °F 67% 30.10 in - WNW 6.9 mph - N/A   Clear
10:52 PM 12.7 °F 1.4 °F 3.7 °F 67% 30.11 in - WNW 8.1 mph - N/A   Clear
11:12 PM 12.6 °F 1.1 °F 3.7 °F 68% 30.12 in - WNW 8.1 mph - N/A   Clear
11:32 PM 12.6 °F 3.4 °F 3.6 °F 67% 30.12 in - WNW 5.8 mph - N/A   Clear
11:52 PM 12.0 °F 0.5 °F 3.0 °F 67% 30.13 in - West 8.1 mph - N/A   Clear